Date,TemperatureHighF,TemperatureAvgF,TemperatureLowF,DewpointHighF,DewpointAvgF,DewpointLowF,HumidityHigh,HumidityAvg,HumidityLow,PressureMaxIn,PressureMinIn,WindSpeedMaxMPH,WindSpeedAvgMPH,GustSpeedMaxMPH,PrecipitationSumIn
2013-1-2,59.8,52.4,41.8,15.8,11.5,7.4,33,19,13,29.65,29.53,20,12,26,0.00
2013-1-3,62.3,51.5,43.2,16.0,10.9,5.2,32,20,11,29.68,29.53,21,12,28,0.00
2013-1-4,62.5,49.1,36.5,16.1,11.5,6.9,31,22,14,29.80,29.68,14,6,17,0.00
2013-1-5,62.3,47.6,34.3,16.8,13.0,9.6,38,25,14,29.83,29.68,8,4,11,0.00
2013-1-6,64.6,50.4,38.8,32.5,20.9,12.3,56,32,15,29.68,29.44,16,5,21,0.00
2013-1-7,63.0,51.8,40.1,33.2,25.7,15.3,68,40,20,29.50,29.38,22,8,28,0.00
2013-1-8,71.2,58.6,42.6,26.7,18.1,12.6,32,21,11,29.59,29.41,23,9,30,0.00
2013-1-9,72.9,59.2,47.4,26.6,24.7,23.1,40,27,15,29.65,29.44,10,4,12,0.00
2013-1-10,64.1,53.6,48.1,41.5,27.0,22.0,46,35,25,29.44,29.29,26,10,34,0.00
2013-1-11,54.8,46.4,35.4,28.5,16.4,6.0,55,31,15,29.62,29.44,20,5,25,0.00
2013-1-12,53.5,43.4,34.1,17.9,9.8,2.8,42,26,15,29.62,29.50,18,6,22,0.00
2013-1-13,52.8,41.6,29.1,4.7,2.1,-0.4,31,19,11,29.68,29.53,14,6,20,0.00
2013-1-14,47.5,39.9,34.2,5.4,-0.5,-4.6,25,18,11,29.77,29.62,27,16,38,0.00
2013-1-15,51.6,45.3,36.6,8.9,2.4,-3.8,25,16,11,29.97,29.85,22,10,27,0.00
2013-1-16,61.0,49.2,37.3,18.5,14.7,8.4,34,25,18,29.88,29.71,19,10,23,0.00
2013-1-17,69.5,55.6,44.1,19.6,17.7,16.0,36,23,13,29.77,29.62,23,12,29,0.00
2013-1-18,71.9,59.4,49.1,18.6,17.0,15.7,26,19,12,29.71,29.59,20,12,23,0.00
2013-1-19,72.2,60.2,48.0,18.6,17.4,16.5,28,19,12,29.74,29.59,18,12,23,0.00
2013-1-22,76.8,66.3,52.7,15.5,12.7,9.1,18,12,9,29.65,29.53,14,6,16,0.00
2013-1-23,78.3,63.2,48.9,25.6,18.6,11.8,25,18,11,29.65,29.53,9,4,11,0.00
2013-1-24,71.5,64.1,59.0,47.3,40.3,24.7,63,43,22,29.68,29.56,13,6,16,0.00
2013-1-25,70.2,61.6,57.1,57.1,50.7,43.3,97,69,44,29.65,29.44,14,7,18,0.51
2013-1-26,61.3,58.0,56.5,57.3,56.3,55.0,97,94,85,29.44,29.38,12,5,14,0.20
2013-1-27,68.4,59.5,52.3,57.4,53.1,36.5,96,80,51,29.50,29.38,15,5,18,0.16
2013-1-28,59.9,51.1,43.5,39.6,35.6,24.9,81,56,31,29.59,29.44,23,8,28,0.00
2013-1-29,60.2,49.2,37.7,41.2,34.0,24.2,91,58,31,29.71,29.59,13,4,16,0.00
2013-1-30,65.8,53.1,40.2,40.3,36.1,28.7,87,56,25,29.85,29.71,12,4,14,0.00
2013-1-31,70.8,55.6,42.5,40.8,37.0,33.1,81,53,25,29.77,29.59,16,6,21,0.00